GW4171 Weather Reports


time (UTC)temp
C
wind
direction
speed
KPH
gust
KPH
rain 1hr
cm
rain 24hr
cm
rain mn
cm
humidity
%
barometer
mb
20260504192936 22 286 20.9 22.5 0.00 0.00 0.00 31 1009.5
20260504192433 22 246 17.7 22.5 0.00 0.00 0.00 31 1009.5
20260504191932 22 230 8.0 29.0 0.00 0.00 0.00 31 1009.7
20260504191430 22 248 17.7 20.9 0.00 0.00 0.00 30 1009.5
20260504190930 22 295 8.0 20.9 0.00 0.00 0.00 31 1009.7
20260504190425 22 227 9.7 20.9 0.00 0.00 0.00 32 1009.7
20260504185922 22 290 14.5 24.1 0.00 0.00 0.00 31 1009.7
20260504185420 22 301 4.8 20.9 0.00 0.00 0.00 31 1009.8
20260504184915 22 205 9.7 14.5 0.00 0.00 0.00 32 1009.9
20260504184411 22 229 17.7 17.7 0.00 0.00 0.00 32 1009.9
20260504183907 21 210 6.4 16.1 0.00 0.00 0.00 32 1010.1
20260504183405 21 261 16.1 27.4 0.00 0.00 0.00 32 1010.3
20260504182903 21 232 6.4 24.1 0.00 0.00 0.00 32 1010.0
20260504182359 21 198 8.0 17.7 0.00 0.00 0.00 32 1010.0
20260504181856 21 253 1.6 17.7 0.00 0.00 0.00 34 1010.2
20260504181354 21 150 1.6 17.7 0.00 0.00 0.00 33 1010.2
20260504180852 21 53 4.8 17.7 0.00 0.00 0.00 33 1010.6
20260504180350 21 224 6.4 14.5 0.00 0.00 0.00 33 1010.7
20260504175848 21 294 6.4 17.7 0.00 0.00 0.00 33 1010.7
20260504175345 20 259 8.0 17.7 0.00 0.00 0.00 34 1010.8
20260504174843 20 258 6.4 24.1 0.00 0.00 0.00 34 1010.7
20260504174340 20 260 12.9 25.7 0.00 0.00 0.00 34 1010.9
20260504173837 21 206 9.7 20.9 0.00 0.00 0.00 34 1010.6
20260504173334 21 184 9.7 17.7 0.00 0.00 0.00 34 1010.5
20260504172831 20 239 9.7 16.1 0.00 0.00 0.00 35 1010.7
20260504172328 21 126 1.6 16.1 0.00 0.00 0.00 34 1010.6
20260504171823 20 237 4.8 12.9 0.00 0.00 0.00 34 1010.7
20260504171321 20 221 4.8 24.1 0.00 0.00 0.00 34 1010.8
20260504170818 20 256 4.8 22.5 0.00 0.00 0.00 35 1010.8
20260504170315 20 245 8.0 24.1 0.00 0.00 0.00 34 1010.8
20260504160233 18 221 4.8 14.5 0.00 0.00 0.00 35 1011.6
20260504150658 18 274 3.2 25.7 0.00 0.00 0.00 37 1012.0
20260504150155 18 228 6.4 14.5 0.00 0.00 0.00 37 1012.5
20260504141124 16 285 14.5 27.4 0.00 0.00 0.00 45 1012.6
20260504140621 16 288 12.9 29.0 0.00 0.00 0.00 44 1012.4
20260504140117 16 283 14.5 20.9 0.00 0.00 0.00 44 1012.5
20260504130545 14 285 14.5 17.7 0.00 0.00 0.00 51 1013.2
20260504110432 11 246 19.3 27.4 0.00 0.00 0.00 55 1013.5
20260504100349 11 241 3.2 8.0 0.00 0.00 0.00 50 1013.3
20260504081742 11 260 9.7 20.9 0.00 0.00 0.00 45 1012.7
20260504081239 11 237 12.9 20.9 0.00 0.00 0.00 45 1012.8
20260504080735 11 257 11.3 11.3 0.00 0.00 0.00 45 1012.9
20260504080232 11 236 20.9 24.1 0.00 0.00 0.00 44 1012.9
20260504070159 12 240 11.3 17.7 0.00 0.00 0.00 44 1012.5
20260504060120 12 312 6.4 12.9 0.00 0.00 0.00 42 1012.4
20260504050548 12 237 9.7 17.7 0.00 0.00 0.00 41 1012.3
20260504045542 12 244 4.8 9.7 0.00 0.00 0.00 41 1012.1
20260504045037 13 231 6.4 16.1 0.00 0.00 0.00 41 1012.0
20260504044535 13 253 4.8 14.5 0.00 0.00 0.00 41 1012.2
20260504044031 13 240 9.7 12.9 0.00 0.00 0.00 41 1012.2
20260504043528 13 248 6.4 12.9 0.00 0.00 0.00 40 1012.1
20260504043026 13 267 12.9 16.1 0.00 0.00 0.00 40 1012.0
20260504042523 13 228 6.4 11.3 0.00 0.00 0.00 40 1011.9
20260504042020 13 237 12.9 17.7 0.00 0.00 0.00 40 1012.0
20260504041515 13 254 11.3 14.5 0.00 0.00 0.00 39 1012.0
20260504041012 13 249 3.2 8.0 0.00 0.00 0.00 39 1012.0
20260504040509 13 269 3.2 12.9 0.00 0.00 0.00 39 1011.8
20260504040006 13 242 3.2 16.1 0.00 0.00 0.00 39 1011.9
20260504035503 13 245 11.3 14.5 0.00 0.00 0.00 39 1011.9
20260504034959 13 257 11.3 14.5 0.00 0.00 0.00 39 1011.6
20260504034457 13 205 1.6 11.3 0.00 0.00 0.00 38 1012.0
20260504033954 13 237 11.3 16.1 0.00 0.00 0.00 38 1012.0
20260504033451 13 238 6.4 9.7 0.00 0.00 0.00 38 1011.9
20260504032949 13 252 8.0 9.7 0.00 0.00 0.00 38 1011.8
20260504032445 13 255 3.2 11.3 0.00 0.00 0.00 38 1011.9
20260504031942 13 252 3.2 11.3 0.00 0.00 0.00 38 1011.7
20260504031439 13 74 0.0 9.7 0.00 0.00 0.00 37 1011.8
20260504030936 13 257 8.0 9.7 0.00 0.00 0.00 38 1011.9
20260504030433 13 298 6.4 9.7 0.00 0.00 0.00 37 1011.8
20260504025928 13 284 3.2 12.9 0.00 0.00 0.00 37 1011.9
20260504025425 13 272 4.8 6.4 0.00 0.00 0.00 37 1011.9
20260504024922 13 253 4.8 8.0 0.00 0.00 0.00 38 1011.8
20260504024420 14 252 4.8 8.0 0.00 0.00 0.00 36 1011.7
20260504023917 14 225 6.4 12.9 0.00 0.00 0.00 35 1012.0
20260504023413 14 251 3.2 6.4 0.00 0.00 0.00 34 1011.8
20260504022909 14 249 8.0 9.7 0.00 0.00 0.00 34 1012.1
20260504022406 14 249 11.3 14.5 0.00 0.00 0.00 34 1011.9
20260504021902 14 241 6.4 11.3 0.00 0.00 0.00 34 1011.8
20260504021359 15 261 9.7 17.7 0.00 0.00 0.00 33 1012.0
20260504020856 15 242 9.7 12.9 0.00 0.00 0.00 33 1012.0
20260504020353 15 273 8.0 17.7 0.00 0.00 0.00 32 1011.9
20260504015849 15 245 6.4 8.0 0.00 0.00 0.00 33 1011.9
20260504015345 15 267 6.4 8.0 0.00 0.00 0.00 32 1011.8
20260504014841 15 273 4.8 11.3 0.00 0.00 0.00 32 1011.8
20260504014337 15 259 6.4 9.7 0.00 0.00 0.00 32 1012.1
20260504013836 15 250 9.7 9.7 0.00 0.00 0.00 31 1011.7
20260504013333 15 243 4.8 9.7 0.00 0.00 0.00 31 1011.6
20260504012830 15 246 8.0 12.9 0.00 0.00 0.00 31 1011.5
20260504012327 15 257 9.7 12.9 0.00 0.00 0.00 31 1011.8
20260504011825 15 247 6.4 8.0 0.00 0.00 0.00 31 1011.6
20260504011321 15 254 4.8 6.4 0.00 0.00 0.00 31 1011.4
20260504010817 15 244 6.4 8.0 0.00 0.00 0.00 32 1011.4
20260504010313 15 238 6.4 8.0 0.00 0.00 0.00 31 1011.3
20260504005809 15 257 9.7 11.3 0.00 0.00 0.00 30 1011.4
20260504005306 15 240 6.4 12.9 0.00 0.00 0.00 30 1011.4
20260504004804 15 250 4.8 12.9 0.00 0.00 0.00 30 1011.3
20260504004301 15 266 8.0 20.9 0.00 0.00 0.00 31 1011.4
20260504003758 15 248 6.4 9.7 0.00 0.00 0.00 30 1011.0
20260504003255 15 242 4.8 6.4 0.00 0.00 0.00 30 1010.8
20260504002751 15 303 4.8 6.4 0.00 0.00 0.00 30 1011.0
20260504002248 15 223 0.0 6.4 0.00 0.00 0.00 30 1011.0
20260504001746 15 246 3.2 8.0 0.00 0.00 0.00 30 1010.7
20260504001243 15 250 4.8 8.0 0.00 0.00 0.00 30 1010.8
20260504000739 15 282 6.4 6.4 0.00 0.00 0.00 29 1010.8
20260504000236 15 313 3.2 6.4 0.00 0.00 0.00 29 1010.5
20260503235735 15 265 4.8 6.4 0.00 0.00 0.00 30 1010.6
20260503235231 15 295 3.2 6.4 0.00 0.00 0.00 29 1010.5
20260503234729 15 304 4.8 8.0 0.00 0.00 0.00 29 1010.5
20260503234227 15 254 0.0 6.4 0.00 0.00 0.00 28 1010.5
20260503233724 15 306 9.7 9.7 0.00 0.00 0.00 28 1010.4
20260503233219 15 226 0.0 4.8 0.00 0.00 0.00 28 1010.3
20260503232717 15 14 9.7 17.7 0.00 0.00 0.00 27 1010.3
20260503232214 16 342 4.8 12.9 0.00 0.00 0.00 27 1010.2
20260503231712 16 270 9.7 20.9 0.00 0.00 0.00 27 1010.4
20260503231208 16 320 8.0 12.9 0.00 0.00 0.00 27 1010.3
20260503230705 16 309 17.7 27.4 0.00 0.00 0.00 27 1010.4
20260503230202 16 329 6.4 14.5 0.00 0.00 0.00 26 1010.1
20260503225659 16 216 8.0 19.3 0.00 0.00 0.00 26 1010.0
20260503225159 16 231 9.7 19.3 0.00 0.00 0.00 27 1010.1
20260503224657 16 77 6.4 9.7 0.00 0.00 0.00 26 1010.0
20260503224155 16 327 11.3 14.5 0.00 0.00 0.00 26 1010.1
20260503223652 15 14 4.8 27.4 0.00 0.00 0.00 26 1010.0
20260503223149 16 297 12.9 19.3 0.00 0.00 0.00 26 1010.4
20260503222646 16 290 19.3 24.1 0.00 0.00 0.00 26 1010.2
20260503222144 16 250 6.4 8.0 0.00 0.00 0.00 25 1009.9
20260503221642 15 351 1.6 17.7 0.00 0.00 0.00 26 1010.0
20260503221139 15 352 6.4 22.5 0.00 0.00 0.00 26 1010.1
20260503220635 15 271 9.7 43.5 0.00 0.00 0.00 26 1010.0
20260503220132 15 294 11.3 19.3 0.00 0.00 0.00 26 1010.3
20260503215630 15 255 9.7 19.3 0.00 0.00 0.00 26 1010.1
20260503215126 15 35 20.9 24.1 0.00 0.00 0.00 26 1010.2
20260503214625 15 339 9.7 29.0 0.00 0.00 0.00 26 1010.1
20260503214121 15 12 6.4 17.7 0.00 0.00 0.00 27 1010.1
20260503213620 15 8 16.1 29.0 0.00 0.00 0.00 26 1010.2
20260503213116 15 46 9.7 20.9 0.00 0.00 0.00 26 1010.2
20260503212614 15 282 8.0 20.9 0.00 0.00 0.00 27 1010.1
20260503212111 15 285 9.7 20.9 0.00 0.00 0.00 27 1009.9
20260503211608 15 359 3.2 16.1 0.00 0.00 0.00 27 1010.0
20260503211103 15 280 22.5 24.1 0.00 0.00 0.00 27 1010.1
20260503210600 15 47 6.4 9.7 0.00 0.00 0.00 27 1010.0
20260503210056 15 340 1.6 24.1 0.00 0.00 0.00 28 1009.9
20260503205553 15 299 12.9 17.7 0.00 0.00 0.00 27 1009.6
20260503205049 15 310 8.0 25.7 0.00 0.00 0.00 28 1009.8
20260503204546 15 242 3.2 20.9 0.00 0.00 0.00 27 1009.8
20260503204043 16 298 1.6 9.7 0.00 0.00 0.00 27 1009.7
20260503203540 14 299 25.7 30.6 0.00 0.00 0.00 28 1010.1
20260503203037 15 281 17.7 35.4 0.00 0.00 0.00 28 1010.0
20260503202535 15 281 4.8 20.9 0.00 0.00 0.00 27 1010.0
20260503202033 15 20 3.2 17.7 0.00 0.00 0.00 28 1009.7
20260503201531 14 292 14.5 19.3 0.00 0.00 0.00 29 1010.0
20260503201028 15 259 9.7 14.5 0.00 0.00 0.00 28 1009.9
20260503200524 14 313 9.7 22.5 0.00 0.00 0.00 28 1010.1
20260503200021 15 255 27.4 33.8 0.00 0.00 0.00 28 1010.0
20260503195518 15 103 9.7 11.3 0.00 0.00 0.00 28 1010.2
20260503195015 14 322 16.1 22.5 0.00 0.00 0.00 29 1010.1
20260503194512 14 243 9.7 22.5 0.00 0.00 0.00 29 1009.9
20260503194012 14 22 12.9 27.4 0.00 0.00 0.00 29 1010.3
20260503193508 13 26 16.1 38.6 0.00 0.00 0.00 29 1010.3